Location: George Washington National Forest Helicopter Landing Site
(38.6463°N, 79.0851°W)
Time: 14:06:26
(UTC-04:00)

Tiros 1 despin weight - Pass Details

Date: 25 August 2019
Orbit: 594 x 642 km, 48.2° (Epoch: 22 September)

Event Time Altitude Azimuth Distance (km) Brightness Sun altitude
Rises 00:14:02 0° 251° (WSW) 2,821 - -38.2°
Reaches altitude 10° 00:16:22 10° 257° (WSW) 1,925 - -38.4°
Maximum altitude 00:20:40 52° 334° (NNW) 747 - -38.7°
Drops below altitude 10° 00:25:03 10° 51° (NE) 1,953 - -38.9°
Sets 00:27:25 0° 56° (ENE) 2,866 - -39.1°
